This is the latest recevied weather packets stored in our database for station/object WP4NYS-13. If no packets are shown the sender has not sent any weather packets the latest 10 day(s).
| Time | Temp. | Humidity | Pressure | Rain* | Wind** | Luminosity | Snow |
|---|---|---|---|---|---|---|---|
| 1777741946 | 20.56° C | 92% | 1011.3 hPa | 0 mm | - | - | - |
| 1777741643 | 21.11° C | 92% | 1011.8 hPa | 0 mm | - | - | - |
| 1777741340 | 21.11° C | 92% | 1011.6 hPa | 0 mm | - | - | - |
| 1777741035 | 21.11° C | 92% | 1011.7 hPa | 0 mm | - | - | - |
| 1777740733 | 21.67° C | 94% | 1011.4 hPa | 1.27 mm | - | - | - |
| 1777740429 | 21.67° C | 96% | 1010.4 hPa | 3.05 mm | - | - | - |
| 1777740127 | 21.11° C | 96% | 1010.6 hPa | 9.65 mm | - | - | - |
| 1777739822 | 21.11° C | 95% | 1010.3 hPa | 30.73 mm | - | - | - |
| 1777739519 | 20.56° C | 94% | 1009.8 hPa | 25.91 mm | - | - | - |
| 1777739216 | 21.11° C | 94% | 1011.6 hPa | 7.87 mm | - | - | - |
| 1777738913 | 21.11° C | 93% | 1011.2 hPa | 4.83 mm | - | - | - |
| 1777738610 | 21.11° C | 92% | 1010.9 hPa | 3.05 mm | - | - | - |
| 1777738306 | 21.67° C | 90% | 1011.6 hPa | 4.32 mm | - | - | - |
| 1777738005 | 22.22° C | 88% | 1011.7 hPa | 3.05 mm | - | - | - |
| 1777737703 | 23.33° C | 88% | 1011.9 hPa | 3.05 mm | - | - | - |
| 1777737401 | 23.33° C | 91% | 1011.6 hPa | 1.27 mm | - | - | - |
| 1777737098 | 23.33° C | 90% | 1011.2 hPa | 1.78 mm | - | - | - |
| 1777736794 | 23.33° C | 89% | 1010.7 hPa | 1.78 mm | - | - | - |
| 1777736165 | 23.33° C | 86% | 1011 hPa | 0 mm | - | - | - |
| 1777735863 | 23.33° C | 86% | 1010.9 hPa | 0 mm | - | - | - |
| 1777735560 | 23.33° C | 86% | 1010.8 hPa | 0 mm | - | - | - |
| 1777735257 | 23.33° C | 86% | 1010.7 hPa | 0 mm | - | - | - |
| 1777734954 | 23.33° C | 86% | 1010.7 hPa | 0 mm | - | - | - |
| 1777734652 | 23.33° C | 86% | 1010.8 hPa | 0 mm | - | - | - |
| 1777734349 | 23.33° C | 86% | 1010.9 hPa | 0 mm | - | - | - |
* Rain latest hour (hover to see other rain measurements)
** Current wind speed in m/s (hover to see current wind gust speed)